CAPE
308 668 559 219 30 9 13 0 8 21 0 1 23 114 234 224 237 375 464 573 766 855 762 538 507 416 225 244 301 177 116 129 422 590 668 732 672 589 387 255 285 281 313
309 774 524 227 18 10 0 0 25 61 41 79 97 108 242 234 317 461 569 690 912 915 616 336 308 195 0 0 43 257 138 15 114 469 682 884 794 680 421 286 243 243 153
270 767 581 241 29 19 0 0 64 72 73 102 103 128 311 305 403 505 588 850 977 876 595 155 96 28 0 0 0 0 17 1 19 116 237 338 439 327 182 253 249 215 208
335 731 638 295 60 36 9 3 100 105 108 155 111 160 339 426 451 455 651 997 995 740 491 176 47 0 0 0 0 1 23 51 170 88 28 103 194 215 159 170 208 235 255
487 832 701 381 88 77 35 14 128 108 173 200 208 336 431 522 537 680 939 1004 870 705 528 272 45 0 0 0 0 22 37 60 121 184 0 0 5 32 14 25 142 206 31
597 903 742 477 154 98 83 59 99 76 164 331 224 335 479 545 604 760 873 898 705 655 491 279 16 0 0 0 0 18 43 53 31 20 0 0 0 10 184 177 45 0 0
845 791 882 612 372 168 134 96 96 64 87 351 359 358 384 445 532 646 728 740 631 521 403 202 42 0 0 0 0 0 0 0 0 0 0 0 0 72 57 3 0 0 0
719 907 943 818 520 340 211 175 93 54 117 294 361 338 362 362 485 597 647 623 589 413 148 38 18 0 0 0 0 0 0 0 0 0 11 0 0 0 0 0 0 0 0
743 650 802 972 829 481 314 281 143 47 94 269 398 336 319 257 314 464 567 559 529 274 41 1 0 0 0 0 0 0 0 0 0 0 10 0 0 0 0 0 0 0 0
709 492 404 917 980 804 515 396 294 62 64 164 373 396 326 250 257 286 310 348 405 225 18 0 0 0 0 0 0 0 0 0 0 0 0 0 0 0 0 0 0 0 0
693 537 412 630 972 963 720 593 491 197 82 141 326 336 280 183 147 135 81 164 174 93 7 0 0 0 0 0 0 0 0 0 0 0 0 0 0 0 0 0 0 0 0
437 448 358 604 873 1080 1037 750 583 426 238 215 270 267 203 129 78 38 8 38 81 19 0 0 0 0 0 0 0 0 0 0 0 19 0 0 0 0 0 0 0 0 0
484 394 479 520 903 1084 1152 753 686 480 228 200 206 167 138 110 14 0 0 83 8 4 0 0 0 0 0 0 0 0 0 0 8 16 1 0 31 54 13 0 0 0 0
617 530 443 458 652 1012 1028 869 771 528 284 172 201 165 77 46 0 0 0 0 0 0 0 0 0 0 0 0 2 28 4 0 14 35 0 0 14 95 107 44 5 0 0
1012 666 461 357 370 675 906 874 785 634 334 194 241 245 43 7 85 0 0 0 0 0 0 0 0 0 0 0 4 40 81 145 58 52 0 0 0 44 144 142 116 69 8
532 953 609 439 315 365 547 838 720 732 506 366 332 396 137 48 219 34 5 0 0 0 0 0 0 0 0 0 0 19 60 31 41 54 11 0 0 0 5 41 72 134 132
0 1123 752 615 533 298 243 587 471 582 571 446 400 435 402 114 197 161 23 5 0 0 0 0 0 0 0 0 0 0 0 0 1 6 1 0 0 0 0 0 0 20 77
0 0 845 735 712 576 255 527 268 279 240 286 306 369 526 190 355 220 90 0 0 0 0 0 0 0 0 0 0 0 0 0 0 0 0 0 0 0 0 0 0 0 0
0 0 36 835 821 755 517 370 630 82 208 143 186 413 572 319 426 479 135 1 1 0 0 0 0 0 0 0 0 0 0 0 0 0 0 0 0 0 0 0 0 0 0
0 0 0 521 975 967 799 418 921 386 252 203 142 427 699 542 344 700 264 99 1 5 2 0 0 0 0 0 0 0 0 0 0 0 0 0 0 0 0 0 0 0 0
0 0 0 0 473 1083 999 670 512 1005 381 480 346 234 875 748 530 565 567 221 194 79 0 0 0 0 0 0 0 0 0 0 0 0 0 0 0 0 0 0 0 0 0
0 0 0 0 0 956 1180 1049 697 808 873 597 620 434 379 851 770 568 436 501 273 269 58 0 0 0 0 0 0 0 0 0 0 0 0 0 0 0 0 0 0 0 0
0 0 0 0 0 0 1146 1269 1225 807 953 743 645 654 629 536 726 630 501 363 454 267 218 56 0 0 0 0 0 0 0 0 0 0 0 0 0 0 0 0 0 0 0
0 0 0 0 0 0 0 1014 1323 1205 1024 1020 810 792 658 806 644 593 522 375 259 300 258 219 82 30 0 0 0 0 0 0 0 0 91 43 0 0 0 0 0 0 0
0 0 0 0 0 0 1 0 4 753 1058 974 1030 1043 856 637 810 729 596 470 314 260 225 232 183 114 62 37 0 0 0 0 0 0 0 0 224 92 32 94 57 13 21
0 0 0 0 0 0 0 2 7 6 226 907 718 604 756 746 650 836 730 649 507 414 311 221 263 179 115 109 56 23 25 12 6 0 0 0 0 26 535 428 525 317 311
CIN
-463 -400 -398 -432 -556 -635 -604 -0 -340 -570 -0 -134 -467 -341 -195 -181 -164 -127 -101 -98 -70 -47 -45 -60 -61 -67 -91 -88 -77 -106 -120 -123 -89 -57 -39 -20 -15 -21 -49 -111 -101 -93 -67
-480 -401 -417 -433 -569 -615 -57 -0 -523 -497 -533 -444 -394 -366 -213 -179 -138 -103 -85 -74 -50 -41 -61 -84 -81 -98 -0 -0 -166 -86 -122 -240 -147 -59 -28 -5 -10 -12 -51 -110 -134 -121 -157
-491 -413 -409 -455 -532 -573 -0 -0 -466 -478 -467 -417 -399 -353 -180 -152 -110 -90 -80 -52 -40 -44 -76 -126 -134 -167 -0 -0 -0 -0 -265 -144 -293 -168 -120 -93 -66 -97 -167 -134 -128 -133 -119
-525 -438 -417 -451 -515 -541 -571 -356 -407 -431 -440 -380 -385 -317 -176 -100 -85 -82 -62 -34 -33 -61 -93 -142 -191 -0 -0 -0 -0 -153 -297 -265 -156 -226 -327 -238 -172 -163 -203 -182 -147 -123 -96
-518 -423 -420 -451 -524 -507 -558 -558 -391 -403 -381 -356 -322 -204 -144 -82 -59 -43 -30 -28 -40 -62 -88 -131 -229 -0 -0 -0 -0 -313 -280 -260 -197 -158 -0 -0 -125 -314 -330 -272 -178 -124 -228
-472 -415 -433 -450 -489 -480 -493 -505 -419 -422 -371 -277 -306 -210 -128 -78 -55 -32 -29 -29 -47 -56 -88 -135 -318 -0 -0 -0 -0 -362 -282 -257 -276 -302 -0 -0 -0 -98 -176 -164 -265 -4 -0
-432 -437 -399 -429 -453 -457 -444 -457 -439 -445 -419 -258 -232 -202 -168 -114 -68 -47 -35 -34 -44 -67 -95 -160 -275 -0 -0 -0 -0 -0 -0 -0 -0 -0 -0 -0 -0 -264 -296 -321 -0 -0 -0
-414 -398 -379 -388 -424 -429 -433 -412 -454 -485 -403 -283 -229 -213 -172 -142 -78 -50 -44 -44 -40 -81 -184 -289 -329 -0 -0 -0 -0 -0 -0 -0 -0 -0 -393 -0 -0 -0 -0 -0 -0 -0 -0
-386 -435 -422 -353 -359 -412 -422 -400 -435 -488 -430 -296 -219 -227 -203 -208 -147 -70 -45 -55 -52 -122 -275 -79 -11 -0 -0 -0 -0 -0 -0 -0 -0 -0 -222 -0 -0 -0 -0 -0 -0 -0 -0
-408 -483 -512 -362 -325 -349 -381 -379 -382 -480 -468 -367 -234 -202 -210 -229 -198 -151 -121 -106 -86 -150 -215 -0 -0 -0 -0 -0 -0 -0 -0 -0 -0 -0 -0 -0 -0 -0 -0 -0 -0 -0 -0
-401 -454 -508 -435 -318 -313 -354 -342 -330 -425 -449 -381 -266 -229 -237 -276 -284 -272 -305 -214 -197 -260 -353 -0 -0 -0 -0 -0 -0 -0 -0 -0 -0 -0 -0 -0 -0 -0 -0 -0 -0 -0 -0
-413 -407 -476 -419 -341 -263 -260 -314 -334 -356 -400 -373 -308 -285 -284 -312 -360 -386 -455 -366 -295 -381 -0 -0 -0 -0 -0 -0 -0 -0 -0 -0 -0 -329 -84 -0 -17 -0 -0 -0 -0 -0 -0
-377 -388 -405 -411 -309 -233 -218 -322 -320 -360 -429 -405 -358 -354 -336 -325 -437 -1 -0 -300 -460 -442 -0 -0 -0 -0 -0 -0 -0 -0 -0 -0 -341 -313 -187 -0 -334 -297 -367 -0 -0 -0 -0
-285 -339 -379 -401 -353 -231 -228 -278 -298 -362 -422 -452 -387 -373 -385 -398 -14 -0 -0 -0 -0 -0 -0 -0 -0 -0 -0 -0 -418 -322 -229 -0 -302 -251 -0 -0 -344 -212 -207 -314 -446 -0 -0
-93 -268 -319 -392 -399 -289 -248 -241 -276 -315 -406 -442 -378 -342 -468 -202 -353 -0 -0 -0 -0 -0 -0 -0 -0 -0 -0 -0 -359 -268 -180 -122 -185 -217 -0 -0 -14 -263 -163 -160 -207 -275 -206
-47 -144 -292 -310 -367 -340 -322 -229 -265 -259 -316 -349 -335 -286 -392 -423 -264 -412 -283 -0 -0 -0 -0 -0 -0 -0 -0 -0 -0 -279 -193 -207 -181 -177 -296 -0 -0 -0 -103 -250 -226 -185 -182
-0 -79 -169 -252 -286 -332 -372 -284 -296 -273 -269 -309 -303 -274 -265 -365 -284 -305 -432 -200 -0 -0 -0 -0 -0 -0 -0 -0 -0 -0 -0 -0 -16 -213 -142 -0 -0 -0 -0 -0 -0 -313 -235
-0 -0 -90 -190 -250 -239 -304 -294 -342 -335 -351 -326 -312 -271 -224 -318 -222 -262 -347 -0 -0 -0 -0 -0 -0 -0 -0 -0 -0 -0 -0 -0 -0 -0 -0 -0 -0 -0 -0 -0 -0 -0 -0
-0 -0 -101 -113 -182 -207 -213 -260 -212 -394 -318 -356 -322 -241 -198 -261 -211 -173 -288 -88 -35 -0 -0 -0 -0 -0 -0 -0 -0 -0 -0 -0 -0 -0 -0 -0 -0 -0 -0 -0 -0 -0 -0
-0 -0 -0 -147 -134 -173 -178 -195 -113 -201 -231 -292 -324 -250 -170 -181 -218 -121 -228 -275 -81 -242 -169 -0 -0 -0 -0 -0 -0 -0 -0 -0 -0 -0 -0 -0 -0 -0 -0 -0 -0 -0 -0
-0 -0 -0 -0 -153 -142 -131 -150 -154 -80 -182 -159 -241 -284 -146 -158 -175 -154 -157 -241 -237 -302 -0 -0 -0 -0 -0 -0 -0 -0 -0 -0 -0 -0 -0 -0 -0 -0 -0 -0 -0 -0 -0
-0 -0 -0 -0 -0 -46 -105 -106 -148 -134 -113 -159 -134 -175 -201 -132 -150 -173 -211 -188 -235 -219 -301 -0 -0 -0 -0 -0 -0 -0 -0 -0 -0 -0 -0 -0 -0 -0 -0 -0 -0 -0 -0
-0 -0 -0 -0 -0 -0 -20 -42 -70 -99 -66 -74 -99 -84 -115 -169 -169 -181 -205 -234 -184 -227 -254 -319 -0 -0 -0 -0 -0 -0 -0 -0 -0 -0 -0 -0 -0 -0 -0 -0 -0 -0 -0
-0 -0 -0 -0 -0 -0 -7 -29 -33 -44 -34 -35 -46 -68 -73 -77 -149 -187 -227 -231 -243 -224 -247 -280 -326 -275 -0 -0 -0 -0 -0 -0 -0 -0 -276 -222 -0 -0 -0 -0 -0 -0 -0
-0 -0 -0 -0 -0 -0 -0 -0 -209 -58 -24 -26 -16 -23 -51 -57 -62 -122 -170 -198 -203 -207 -250 -257 -272 -309 -321 -320 -25 -0 -0 -0 -0 -0 -0 -0 -236 -330 -362 -292 -305 -368 -337
-0 -0 -0 -0 -0 -0 -0 -0 -0 -0 -197 -40 -31 -36 -37 -38 -52 -67 -105 -141 -152 -159 -171 -236 -249 -286 -300 -299 -349 -359 -349 -375 -402 -92 -0 -0 -0 -52 -135 -139 -162 -232 -195
Wind_Speed
19 23 25 23 22 22 20 19 17 17 17 16 15 13 11 14 15 14 14 17 19 13 3 11 11 12 16 14 17 19 32 21 7 16 16 20 25 28 27 27 28 29 29
22 23 25 24 22 22 21 20 17 16 15 14 14 15 13 12 11 9 10 16 19 17 5 14 14 17 17 18 22 32 30 31 28 6 5 6 10 21 24 26 28 27 27
21 23 24 24 22 22 21 20 18 16 15 14 12 13 12 11 8 7 6 15 21 11 9 16 19 19 19 22 29 34 34 34 32 29 23 19 22 25 26 26 26 26 26
21 21 23 24 22 22 21 21 18 17 16 15 14 14 12 8 6 5 5 6 7 5 14 17 20 22 23 27 30 32 33 32 31 23 27 26 25 25 25 25 25 25 25
19 20 22 23 21 21 21 21 19 17 16 16 14 13 12 8 7 7 7 6 3 10 12 14 17 21 25 28 24 23 27 27 24 17 25 24 25 25 24 24 24 24 24
17 17 20 21 21 20 20 20 20 19 17 15 14 12 11 8 6 4 4 3 4 10 12 11 12 13 21 23 18 19 22 23 19 17 24 23 23 23 23 23 23 23 23
13 15 16 19 20 21 19 19 19 20 18 17 14 12 11 9 7 5 2 2 5 7 9 10 8 8 11 11 10 17 17 15 15 15 21 20 21 21 21 21 21 21 21
11 12 13 14 16 19 20 20 19 20 18 17 15 13 12 10 7 3 2 2 4 6 7 7 6 5 10 12 13 17 15 15 12 4 20 19 19 19 19 19 19 19 19
9 9 10 9 9 14 16 18 19 19 19 17 16 14 12 11 8 3 3 4 4 4 6 6 5 6 8 12 14 17 15 16 14 11 16 17 18 17 17 17 17 17 17
5 5 6 7 6 5 9 14 16 18 18 17 16 14 13 11 9 5 3 4 5 5 5 2 3 6 8 10 13 18 17 17 13 11 14 14 15 15 15 15 15 15 15
5 3 1 2 5 5 6 10 12 14 16 16 15 14 11 9 8 5 3 2 3 3 2 2 3 5 8 11 15 19 18 17 18 15 11 13 13 13 13 13 12 12 12
7 5 3 3 2 4 5 5 7 9 10 12 12 12 11 10 9 7 5 5 2 3 1 0 2 7 11 14 16 20 19 20 19 17 9 10 10 10 11 10 10 10 10
9 7 6 6 5 4 2 4 4 4 6 8 10 12 12 10 11 7 4 3 2 1 3 3 5 8 10 13 15 19 19 20 21 12 7 8 8 8 8 8 8 7 7
13 11 8 8 9 7 5 5 5 5 6 7 8 11 12 11 12 8 7 6 4 2 4 3 0 2 9 21 19 21 25 24 21 13 7 5 5 6 6 6 6 6 5
18 16 13 10 12 12 11 7 6 7 6 6 7 9 11 12 12 8 8 5 6 5 5 5 6 4 5 11 20 24 25 21 12 13 9 3 3 4 4 5 4 3 3
27 19 16 14 13 16 16 12 9 8 8 8 8 8 10 11 9 10 8 7 6 7 8 7 6 4 6 6 9 2 9 16 18 17 9 3 1 3 3 3 3 3 2
32 26 21 20 17 15 19 16 13 10 10 10 9 9 10 11 8 10 8 8 8 6 8 8 8 5 5 5 4 7 17 16 16 15 17 12 6 4 3 3 3 2 2
34 30 26 23 22 20 20 21 19 17 14 13 11 11 12 12 9 9 8 6 9 7 8 8 6 7 5 5 5 4 7 6 5 5 5 6 8 7 5 6 6 5 4
34 31 31 30 25 23 22 24 23 23 20 17 15 13 13 13 12 10 10 9 7 8 7 8 8 5 7 5 6 7 7 7 7 6 6 7 7 5 5 6 6 6 7
30 31 33 35 29 27 25 25 27 25 25 21 19 17 15 14 15 12 11 10 10 8 7 8 8 8 10 8 10 9 13 12 8 7 7 7 8 9 8 7 5 6 9
30 31 31 30 39 30 29 27 28 29 28 28 24 21 18 17 16 15 15 15 15 12 12 11 11 11 10 14 17 19 18 10 9 12 10 10 10 9 8 9 7 6 6
30 30 31 31 33 41 32 31 29 29 30 31 30 27 23 21 20 19 18 18 18 17 15 14 14 17 16 14 15 21 23 25 18 11 9 11 12 8 7 8 8 8 7
30 30 31 31 31 33 41 35 33 31 31 33 36 32 29 25 24 22 21 21 21 20 18 17 16 16 18 18 15 17 20 20 24 20 11 10 11 10 9 8 8 8 8
30 29 29 30 31 31 34 40 36 34 34 33 35 35 34 31 29 27 25 24 24 24 23 21 19 19 19 20 22 18 21 23 23 26 22 19 12 12 11 11 11 10 10
30 29 29 29 28 29 28 30 31 41 38 35 35 35 35 35 35 33 31 29 28 28 27 26 25 23 23 23 22 24 25 25 27 28 34 31 25 17 14 14 14 13 13
31 31 28 28 27 28 27 26 29 31 32 39 39 39 39 40 36 35 34 33 31 30 30 30 29 27 26 26 26 26 26 28 27 28 29 31 30 30 24 21 19 18 18
Wind_Direction
94 106 112 103 97 92 86 83 77 76 75 72 69 65 64 68 71 71 68 68 70 64 127 171 171 169 162 161 155 151 130 64 112 146 146 143 135 123 67 64 66 66 65
105 110 113 108 102 98 92 88 82 78 76 74 71 71 69 72 73 73 66 65 70 69 86 171 168 164 162 161 154 133 82 83 76 98 95 57 42 52 57 62 68 67 63
104 110 113 112 106 102 97 94 88 83 80 76 73 73 73 74 74 71 65 63 75 64 177 172 167 164 164 160 144 121 105 101 92 79 63 50 55 61 65 66 67 65 63
103 108 114 115 110 107 103 99 93 89 85 80 78 78 77 74 72 69 62 59 62 180 180 176 171 165 163 154 144 131 118 110 102 95 90 74 69 67 67 66 65 66 66
95 105 113 116 112 112 108 105 99 94 90 87 83 80 79 74 68 63 59 59 196 194 190 186 182 172 162 155 161 161 146 137 147 163 111 75 79 77 74 75 75 77 71
91 99 112 116 115 114 111 109 106 102 96 92 89 84 81 76 69 58 50 41 221 205 200 200 199 197 180 174 185 180 165 152 163 168 105 76 81 81 78 79 77 76 73
83 96 108 115 117 118 116 112 112 110 105 99 93 89 85 80 72 61 9 277 240 227 218 214 220 225 220 224 227 200 197 204 208 202 102 77 83 84 83 80 78 76 73
87 91 105 109 116 120 122 122 119 118 114 108 101 94 91 86 76 49 13 320 269 248 239 238 244 255 239 235 234 217 224 221 251 321 110 80 86 86 84 84 78 74 74
77 85 103 103 104 119 123 125 126 125 123 116 110 103 98 93 82 44 315 291 292 280 257 255 264 268 265 255 246 233 241 239 279 322 98 80 87 87 88 88 84 81 75
47 61 105 104 107 107 122 128 129 130 130 125 119 112 107 101 92 69 320 292 283 283 278 309 301 286 283 274 261 244 247 255 308 22 101 88 92 86 85 86 84 80 77
342 354 42 134 119 120 125 133 132 132 134 131 126 122 113 102 95 82 50 339 311 303 306 302 300 295 287 277 264 244 257 272 267 333 110 103 100 85 82 83 81 79 78
309 314 296 239 198 138 138 149 143 136 133 132 130 127 123 118 114 104 89 92 27 300 318 10 305 287 277 272 267 253 268 273 278 321 93 108 97 83 77 75 73 73 74
285 299 286 253 229 196 193 186 214 179 151 143 140 138 136 127 128 112 97 80 42 18 297 289 288 285 284 281 278 272 282 284 284 360 64 104 97 80 68 62 60 59 60
277 274 278 265 236 218 249 202 221 204 183 167 158 150 147 141 139 133 126 121 117 111 121 124 137 299 287 262 272 275 263 274 294 344 33 87 79 58 48 43 39 38 40
278 271 267 267 244 238 252 240 220 203 206 203 184 168 162 157 152 144 143 137 139 141 146 143 145 147 149 159 273 272 275 296 318 330 359 61 45 34 26 19 18 17 18
286 269 262 261 254 240 247 247 238 227 218 205 204 194 177 171 164 160 157 157 149 156 158 159 163 170 167 168 174 245 316 309 310 313 337 345 311 335 343 351 358 356 340
299 275 263 259 255 246 240 249 245 237 225 218 212 205 194 188 187 177 173 169 167 164 167 168 173 176 187 189 209 292 300 305 309 313 314 323 315 274 259 254 256 288 297
304 305 268 258 251 252 251 246 250 252 243 239 232 220 204 199 216 197 195 197 178 175 176 181 188 192 208 218 259 267 295 291 270 272 285 284 307 313 262 241 239 250 253
302 308 300 256 249 249 254 248 252 250 252 245 243 234 218 209 211 223 212 211 211 196 201 196 197 224 209 253 275 281 283 283 276 274 254 242 241 258 267 262 244 241 232
305 306 307 263 249 248 252 252 253 252 254 251 243 244 234 223 214 237 235 241 233 229 229 224 236 242 281 269 285 286 296 299 278 258 249 247 239 239 236 230 238 234 224
307 305 307 294 260 246 247 248 249 250 249 255 251 244 240 234 228 235 249 248 260 242 236 252 268 267 268 286 295 297 298 287 267 238 245 235 235 237 234 232 232 230 218
309 304 305 304 283 253 247 248 252 250 252 249 253 252 246 241 237 239 244 251 252 259 252 246 258 274 277 278 282 295 298 299 298 280 266 241 237 250 245 236 234 234 243
308 307 303 304 300 276 253 251 253 255 255 253 250 252 253 246 243 240 245 247 253 255 254 251 249 253 269 273 272 285 300 298 307 307 274 260 253 257 259 264 265 260 259
308 308 308 308 306 298 274 260 252 253 255 256 254 253 253 255 250 247 247 247 252 256 258 253 254 258 265 270 278 268 279 299 303 306 311 310 289 277 265 278 284 275 276
312 308 309 309 311 311 299 276 271 262 260 262 258 256 254 255 254 252 251 252 254 259 260 261 258 255 261 268 268 278 276 280 286 291 296 299 306 300 282 280 282 284 288
315 308 308 311 311 314 312 298 282 279 276 266 265 266 265 259 255 251 250 253 255 259 262 262 263 259 259 263 268 270 275 281 280 285 288 293 295 297 296 288 289 291 295